Regional Weather Roundup
Issued by NWS

Home | Current Version | Previous Version | Graphics & Text | Print | Product List | Glossary Off
Versions: 1 2 3 4 5 6 7 8 9 10 11 12 13 14 15 16 17 18 19 20 21 22 23 24 25 26 27 28 29 30 31 32 33 34 35 36 37 38 39 40 41 42 43 44 45 46 47 48 49 50

000
ASUS43 KMKX 291400
RWRWI

WISCONSIN REGIONAL WEATHER ROUNDUP
NATIONAL WEATHER SERVICE MILWAUKEE/SULLIVAN WI
800 AM CST MON DEC 29 2014

NOTE: "FAIR" INDICATES FEW OR NO CLOUDS BELOW 12,000 FEET WITH NO
SIGNIFICANT WEATHER AND/OR OBSTRUCTIONS TO VISIBILITY.

WIZ001-002-006>008-014>016-023>028-291500-
NORTHWEST WISCONSIN

CITY           SKY/WX    TMP DP  RH WIND       PRES   REMARKS
SUPERIOR ARPT  PTCLDY    -4 -10  74 W5        30.54R WCI -15
ASHLAND        MOCLDY     0  -4  83 NW6       30.48R WCI -12
HAYWARD        PTCLDY   -13 -18  78 S3        30.45R
SIREN          PTCLDY    -8 -12  82 NW3       30.51R
CUMBERLAND     PTCLDY    -4  -9  77 N7        30.45R WCI -18
RICE LAKE      PTCLDY    -3  -8  79 NW3       30.48R
CHETEK         PTCLDY    -4  -8  81 CALM      30.46S
LADYSMITH      PTCLDY    -5  -9  83 NW3       30.44R
EAU CLAIRE     NOT AVBL
MENOMONIE      PTCLDY     2  -5  72 NW9       30.47R WCI -13
NEW RICHMOND   PTCLDY    -3  -8  79 N7        30.49R WCI -17
OSCEOLA        PTCLDY    -1  -6  78 N5        30.54R WCI -11
$$

WIZ003>005-009-010-017-018-291500-
NORTH CENTRAL WISCONSIN

CITY           SKY/WX    TMP DP  RH WIND       PRES   REMARKS
MANITOWISH WTR LGT SNOW  -3  -6  84 CALM      30.32S
ARBOR VITAE    FAIR      -4  -8  81 NW3       30.32S
WOODRUFF       FAIR      -4  -8  81 NW3       30.32S
RHINELANDER    PTCLDY    -8 -12  83 CALM      30.33R
EAGLE RIVER    PTCLDY    -2  -7  80 NW3       30.31R
LAND O LAKES   FLURRIES   1  -3  84 W3        30.31R
PHILLIPS       CLOUDY    -9 -13  83 CALM      30.36R FOG
TOMAHAWK       CLOUDY   -12 -16  80 CALM      30.36R
MEDFORD        MOCLDY   N/A N/A N/A NW5       30.37R
MERRILL        FLURRIES  -5  -8  85 CALM      30.36R
$$

WIZ029-030-035-036-043>047-291500-
CENTRAL WISCONSIN

CITY           SKY/WX    TMP DP  RH WIND       PRES   REMARKS
WAUSAU         PTCLDY     2  -3  80 NW6       30.38R WCI  -9
MOSINEE        CLEAR      1   0  92 NW5       30.39R WCI  -8
MARSHFIELD     MOCLDY     2  -3  80 N5        30.39R WCI  -8
STEVENS POINT  MOCLDY     4   0  82 N3        30.39S
WAUPACA        MOCLDY    14   7  74 NW3       30.40S
WAUTOMA        NOT AVBL
WISC RAPIDS    MOCLDY     9   1  70 N8        30.42R WCI  -3
CAMP DOUGLAS   NOT AVBL
$$

WIZ011>013-019>022-031-037>040-048>050-291500-
NORTHEAST WISCONSIN

CITY           SKY/WX    TMP DP  RH WIND       PRES   REMARKS
ANTIGO         MOCLDY    -2  -5  87 NW3       30.32S
SHAWANO        MOCLDY    10   5  79 W3        30.41R
OCONTO         MOCLDY    12   6  77 NW6       30.40R WCI   2
STURGEON BAY   MOCLDY    14   7  73 NW15      30.39R WCI  -1
GREEN BAY      MOCLDY    15   7  70 NW7       30.40R WCI   5
MANITOWOC      NOT AVBL
APPLETON       MOCLDY    12   7  79 N8        30.38S WCI   1
CLINTONVILLE   PTCLDY    10   5  79 NW5       30.40R WCI   2
OSHKOSH        MOCLDY    15   7  70 N7        30.39R WCI   5
$$

WIZ032>034-041-042-053>061-291500-
SOUTHWEST WISCONSIN

CITY           SKY/WX    TMP DP  RH WIND       PRES   REMARKS
LA CROSSE      MOCLDY    12   5  73 NW9       30.46R WCI   0
SPARTA         PTCLDY     9   4  81 N3        30.43R
VIROQUA        PTCLDY    12   8  85 N6        30.37R WCI   2
BOSCOBEL       CLEAR     17   9  70 N3        30.41R
PRAIRIE DU CHI PTCLDY    19  11  70 CALM      30.40R
PLATTEVILLE    PTCLDY    19  15  84 CALM      30.36R
$$

WIZ056-057-062-063-064-067-068-291500-
SOUTH CENTRAL WISCONSIN

CITY           SKY/WX    TMP DP  RH WIND       PRES   REMARKS
REEDSBURG      MOCLDY    13   8  77 N6        30.39R WCI   4
BARABOO/DELLS  PTCLDY    13  10  84 N5        30.38R WCI   6
LONE ROCK      NOT AVBL
MINERAL POINT  FAIR      19  14  79 N5        30.34R WCI  13
MADISON        MOCLDY    16  10  77 N9        30.39R WCI   4
MIDDLETON      MOCLDY    19  12  75 NE8       30.38R WCI   9
WATERTOWN      PTCLDY    16  11  80 N7        30.37R WCI   6
MONROE         CLOUDY    19  16  86 N9        30.34R WCI   9
JANESVILLE     CLEAR     21  18  86 N6        30.36R WCI  14
$$

WIZ051-052-058>065-066-070>072-291500-
SOUTHEAST WISCONSIN

CITY           SKY/WX    TMP DP  RH WIND       PRES   REMARKS
MILWAUKEE      PTCLDY    20  10  65 N8        30.38R WCI  10
WAUKESHA       PTCLDY    16  10  79 N6        30.38R WCI   7
MILWAUKEE/TIMM CLEAR     18   7  62 N6        30.38R WCI   9
RACINE         CLEAR     20  13  74 N10       30.38R WCI   9
BURLINGTON     CLEAR     18  13  82 N6        30.36R WCI  10
KENOSHA        CLEAR     21  15  78 N7        30.36R WCI  12
FOND DU LAC    MOCLDY    17   7  64 N7        30.39R WCI   8
SHEBOYGAN      PTCLDY    16   8  71 N8        30.39R WCI   5
WEST BEND      PTCLDY    16   5  62 NW3       30.37R
JUNEAU         PTCLDY    14   8  74 N7        30.38S WCI   4
$$

LSZ147-162-291500-
LAKE SUPERIOR

STATION/POSITION TIME  TEMP    WIND        PRES    WAVE
                       AIR SEA DIR/SP/G            HT/PER
                 (UTC) (F)     (DEG/KT/KT) (MB)    (FT/S)
DEVILS ISLAND    1300    5     320/ 18/ 22 1033.3R
PORT WING        1340    5     290/  9/ 13 1032.8R
SAXON HARBOR     1300    7     240/  3/  9 1030.8
$$

LMZ867-665-643>646-291500-
LAKE MICHIGAN

STATION/POSITION TIME  TEMP    WIND        PRES    WAVE
                       AIR SEA DIR/SP/G            HT/PER
                 (UTC) (F)     (DEG/KT/KT) (MB)    (FT/S)
CHAMBERS ISLAND  1300   14     300/ 13/ 17 1027.8S
NORTHPORT PIER   1313   17     340/ 15/ 21 1027.8R
SISTER BAY       1313          340/ 19/ 23   N/A
ALGOMA LAKESHORE 1200          340/ 12/ 17   N/A
KEWAUNEE LAKESHO 1300   15     330/  7/ 13 1027.3R
SHEBOYGAN LAKESH 1300   17 35  320/ 10/ 11 1030.2R
PORT WASHINGTON  1300   18     350/  3/  6 1029.5R
MILWAUKEE LAKESH 1300   20     340/  8/ 11   N/A
KENOSHA   LAKESH 1300   25     340/ 11/ 13 1027.4R
$$

TC  - TEMPERATURE IN CELSIUS
VSB - VISIBILITY IN STATUTE MILES
WCI - WIND CHILL INDEX
HX  - HEAT INDEX




USA.gov is the U.S. government's official web portal to all federal, state and local government web resources and services.